Shelby, NC

7:26 PM EDT on May 25, 2018 (GMT -0400)
Shelby Municipal

Weather History for KEHO - April, 2013

Change the Weather History Date:

Sunday, April 28, 2013

  Actual Average (WUND) Record (WUND)
Temperature  
Mean Temperature 53 °F -  
Max Temperature 54 °F - - (-1)
Min Temperature 52 °F - - (-1)
Degree Days  
Heating Degree Days 12    
Growing Degree Days 3 (Base 50)    
Moisture  
Dew Point 53 °F    
Average Humidity 98    
Maximum Humidity 99    
Minimum Humidity 97    
Precipitation  
Precipitation 3.08 in - - ()
Sea Level Pressure  
Sea Level Pressure 30.16 in    
Wind  
Wind Speed 3 mph (NNE)    
Max Wind Speed 9 mph    
Max Gust Speed 16 mph    
Visibility 5 miles    
Events Rain    
Averages and records for this station are not official NWS values.
T = Trace of Precipitation, MM = Missing Value Source: NWS Daily Summary

Daily Weather History Graph

Daily Weather History Graph

Search for Another Location

Airport or City:

Astronomy

Apr. 28, 2013 Rise Set
Actual Time 6:38 AM EDT 8:10 PM EDT
Civil Twilight 6:11 AM EDT 8:37 PM EDT
Nautical Twilight 5:38 AM EDT 9:09 PM EDT
Astronomical Twilight 5:04 AM EDT 9:43 PM EDT
Moon 11:35 PM EDT (4/28) 8:57 AM EDT (4/28)
Length of Visible Light 14h 25m
Length of Day
13h 31m
Waning Gibbous, 89% of the Moon is Illuminated
Apr 28
Waning Gibbous
May 2
Last Quarter
May 9
New
May 18
First Quarter
May 25
Full

Hourly Weather History & Observations

Time (EDT) Temp. Dew Point Humidity Pressure Visibility Wind Dir Wind Speed Gust Speed Precip Events Conditions
12:15 AM 53.1 °F 52.7 °F 99% 30.27 in 4.0 mi Calm Calm - N/A   Overcast
12:35 AM 53.4 °F 52.7 °F 97% 30.26 in 5.0 mi NNE 3.5 mph - N/A   Overcast
12:55 AM 53.2 °F 52.7 °F 98% 30.27 in 5.0 mi Calm Calm - N/A   Overcast
1:15 AM 53.2 °F 52.7 °F 98% 30.26 in 5.0 mi Calm Calm - N/A   Overcast
1:35 AM 53.1 °F 52.3 °F 97% 30.25 in 4.0 mi NNE 3.5 mph - N/A   Overcast
1:55 AM 53.2 °F 52.7 °F 98% 30.24 in 5.0 mi Calm Calm - N/A   Overcast
2:15 AM 53.2 °F 52.7 °F 98% 30.24 in 5.0 mi Calm Calm - N/A   Overcast
2:35 AM 53.2 °F 52.7 °F 98% 30.23 in 4.0 mi Calm Calm - N/A   Light Drizzle
2:55 AM 53.2 °F 52.7 °F 98% 30.22 in 5.0 mi Calm Calm - N/A   Overcast
3:15 AM 53.4 °F 52.7 °F 97% 30.22 in 4.0 mi Calm Calm - N/A   Overcast
3:35 AM 53.1 °F 52.7 °F 99% 30.21 in 3.0 mi Calm Calm - N/A   Overcast
3:55 AM 53.1 °F 52.7 °F 99% 30.20 in 3.0 mi Calm Calm - N/A   Overcast
4:15 AM 53.2 °F 52.7 °F 98% 30.20 in 4.0 mi NE 3.5 mph - N/A   Overcast
4:35 AM 53.1 °F 52.7 °F 99% 30.21 in 3.0 mi Calm Calm - N/A Rain Light Rain
4:55 AM 53.2 °F 52.7 °F 98% 30.23 in 5.0 mi WNW 3.5 mph - N/A   Overcast
5:15 AM 53.2 °F 52.7 °F 98% 30.24 in 4.0 mi Calm Calm - N/A   Overcast
5:35 AM 53.2 °F 52.7 °F 98% 30.22 in 5.0 mi ENE 3.5 mph - N/A   Overcast
5:55 AM 53.1 °F 52.7 °F 99% 30.21 in 4.0 mi East 3.5 mph - N/A Rain Light Rain
6:15 AM 53.2 °F 52.7 °F 98% 30.21 in 4.0 mi Calm Calm - 0.02 in Rain Light Rain
6:35 AM 53.1 °F 52.7 °F 99% 30.19 in 4.0 mi ENE 4.6 mph - 0.02 in Rain Light Rain
6:55 AM 53.1 °F 52.7 °F 99% 30.20 in 2.5 mi ENE 3.5 mph - 0.03 in   Overcast
7:15 AM 53.1 °F 52.7 °F 99% 30.20 in 4.0 mi Calm Calm - N/A   Overcast
7:35 AM 53.2 °F 52.7 °F 98% 30.22 in 5.0 mi North 3.5 mph - N/A   Overcast
7:55 AM 53.4 °F 52.7 °F 97% 30.21 in 3.0 mi Calm Calm - N/A Rain Light Rain
8:15 AM 53.2 °F 52.7 °F 98% 30.19 in 1.8 mi NE 3.5 mph - 0.05 in Rain Light Rain
8:35 AM 53.6 °F 53.1 °F 98% 30.20 in 2.5 mi NE 3.5 mph - 0.05 in Rain Light Rain
8:55 AM 53.6 °F 53.1 °F 98% 30.20 in 3.0 mi NNE 4.6 mph - 0.05 in Rain Light Rain
9:15 AM 53.6 °F 53.1 °F 98% 30.20 in 3.0 mi NE 3.5 mph - 0.01 in Rain Light Rain
9:35 AM 54.0 °F 53.4 °F 98% 30.20 in 2.5 mi NE 4.6 mph - 0.04 in Rain Light Rain
9:55 AM 54.0 °F 53.2 °F 97% 30.19 in 3.0 mi NE 3.5 mph - 0.06 in Rain Light Rain
10:15 AM 53.8 °F 53.1 °F 97% 30.21 in 2.0 mi West 3.5 mph - 0.11 in Rain Rain
10:35 AM 53.6 °F 52.9 °F 97% 30.21 in 2.5 mi Calm Calm - 0.14 in Rain Rain
10:55 AM 53.8 °F 53.1 °F 97% 30.21 in 1.8 mi NW 6.9 mph - 0.20 in Rain Rain
11:15 AM 53.6 °F 52.9 °F 97% 30.21 in 1.8 mi NNW 5.8 mph - 0.14 in Rain Heavy Rain
11:35 AM 53.1 °F 52.7 °F 99% 30.21 in 2.0 mi North 6.9 mph - 0.32 in Rain Rain
11:55 AM 53.2 °F 52.7 °F 98% 30.19 in 3.0 mi North 6.9 mph - 0.39 in Rain Rain
12:15 PM 52.9 °F 52.2 °F 97% 30.19 in 2.5 mi North 8.1 mph - 0.15 in Rain Heavy Rain
12:35 PM 52.9 °F 52.2 °F 97% 30.19 in 3.0 mi North 5.8 mph - 0.27 in Rain Heavy Rain
12:55 PM 53.1 °F 52.3 °F 97% 30.18 in 4.0 mi NNE 5.8 mph - 0.38 in Rain Heavy Rain
1:15 PM 53.1 °F 52.3 °F 97% 30.17 in 2.0 mi NE 5.8 mph - 0.15 in Rain Heavy Rain
1:35 PM 53.2 °F 52.7 °F 98% 30.18 in 3.0 mi North 3.5 mph - 0.30 in Rain Heavy Rain
1:55 PM 53.2 °F 52.7 °F 98% 30.17 in 4.0 mi NNE 6.9 mph - 0.45 in Rain Rain
2:15 PM 53.6 °F 52.9 °F 97% 30.15 in 7.0 mi NNE 9.2 mph - 0.03 in Rain Rain
2:35 PM 53.2 °F 52.7 °F 98% 30.15 in 3.0 mi NE 8.1 mph - 0.18 in Rain Rain
2:55 PM 53.6 °F 52.9 °F 97% 30.14 in 5.0 mi NE 8.1 mph - 0.27 in Rain Rain
3:15 PM 53.6 °F 52.9 °F 97% 30.13 in 4.0 mi NE 6.9 mph 16.1 mph 0.06 in Rain Rain
3:35 PM 54.0 °F 53.6 °F 99% 30.12 in 5.0 mi NE 6.9 mph - 0.12 in Rain Rain
3:55 PM 54.0 °F 53.6 °F 99% 30.11 in 3.0 mi NE 8.1 mph - 0.24 in Rain Rain
4:15 PM 54.0 °F 53.6 °F 99% 30.12 in 4.0 mi North 6.9 mph - 0.09 in Rain Rain
4:35 PM 54.0 °F 53.4 °F 98% 30.12 in 4.0 mi NNE 4.6 mph - 0.23 in Rain Heavy Rain
4:55 PM 54.0 °F 53.6 °F 99% 30.12 in 4.0 mi NNE 5.8 mph - 0.41 in Rain Rain
5:15 PM 54.0 °F 53.6 °F 99% 30.11 in 4.0 mi NE 4.6 mph - 0.08 in Rain Rain
5:35 PM 54.1 °F 53.6 °F 98% 30.10 in 5.0 mi ENE 5.8 mph - 0.14 in Rain Rain
5:55 PM 54.1 °F 53.6 °F 98% 30.09 in 5.0 mi NNE 5.8 mph - 0.20 in Rain Rain
6:15 PM 54.5 °F 53.8 °F 97% 30.08 in 5.0 mi NNE 8.1 mph - 0.06 in Rain Rain
6:35 PM 54.7 °F 54.1 °F 98% 30.09 in 5.0 mi Calm Calm - 0.15 in Rain Heavy Rain
6:55 PM 54.7 °F 54.1 °F 98% 30.09 in 5.0 mi NNE 3.5 mph - 0.23 in Rain Rain
7:15 PM 54.7 °F 54.1 °F 98% 30.09 in 7.0 mi NNW 3.5 mph - 0.04 in Rain Rain
7:35 PM 54.7 °F 54.1 °F 98% 30.09 in 7.0 mi North 4.6 mph - 0.09 in Rain Rain
7:55 PM 54.7 °F 54.1 °F 98% 30.09 in 10.0 mi North 4.6 mph - 0.12 in Rain Light Rain
8:15 PM 54.7 °F 54.1 °F 98% 30.09 in 10.0 mi Calm Calm - 0.02 in Rain Light Rain
8:35 PM 54.7 °F 54.1 °F 98% 30.09 in 10.0 mi NNW 4.6 mph - 0.02 in Rain Rain
8:55 PM 54.7 °F 54.1 °F 98% 30.09 in 10.0 mi Calm Calm - 0.03 in Rain Light Rain
9:15 PM 54.7 °F 54.1 °F 98% 30.08 in 10.0 mi NE 3.5 mph - N/A   Light Drizzle
9:35 PM 54.5 °F 53.8 °F 97% 30.07 in 10.0 mi NNE 5.8 mph - N/A Rain Light Rain
9:55 PM 54.1 °F 53.6 °F 98% 30.07 in 10.0 mi ENE 4.6 mph - N/A   Light Drizzle
10:15 PM 54.5 °F 53.8 °F 97% 30.06 in 10.0 mi East 4.6 mph - N/A   Overcast
10:55 PM 54.5 °F 54.0 °F 98% 30.05 in 10.0 mi ESE 4.6 mph - N/A   Overcast
11:15 PM 54.7 °F 54.1 °F 98% 30.06 in 10.0 mi SE 3.5 mph - N/A   Overcast
11:35 PM 54.7 °F 54.3 °F 99% 30.07 in 10.0 mi Calm Calm - N/A   Light Drizzle
11:55 PM 54.7 °F 54.1 °F 98% 30.07 in 7.0 mi Calm Calm - 0.02 in   Drizzle